{"data":{"norad_id":50180,"intl_designator":"2021-125AA","name":"STARLINK-3265","alt_names":[],"object_type":"PAYLOAD","status":"ACTIVE","operator":null,"country":"US","launch_date":"2021-12-18","launch_site_code":"AFWTR","launch_vehicle":null,"mission":null,"orbit_class":"UNKNOWN","rcs_meters":null,"size_class":null,"mass_kg":null,"dimensions":null,"purposes":["comms"],"wikipedia_slug":null,"has_3d_model":false,"image_url":null,"decayed_at":null,"tle_current":{"epoch":"2026-09-20T00:14:52.341792Z","epoch_age_seconds":87555,"freshness":"FRESH","line1":"1 50180U 21125AA  26263.01032803  .00001101  00000+0  47231-4 0  9994","line2":"2 50180  53.1592  84.0493 0001158  93.4131 266.7003 15.31701446266151","mean_motion":15.31701446,"eccentricity":0.0001158,"inclination_deg":53.1592,"raan_deg":84.0493,"arg_perigee_deg":93.4131,"mean_anomaly_deg":266.7003,"bstar":4.7231e-5,"rev_number":26615,"period_min":94.013099208108,"perigee_km":469.94258532139,"apogee_km":471.52878423518,"semimajor_km":6848.8726847783,"source":"CELESTRAK","updated_at":"2026-09-20T09:00:39.416745Z"}}}